TimeCDT,TemperatureF,Dew PointF,Humidity,Sea Level PressureIn,VisibilityMPH,Wind Direction,Wind SpeedMPH,Gust SpeedMPH,PrecipitationIn,Events,Conditions,WindDirDegrees,DateUTC
12:56 AM,45.0,41.0,86,29.97,9.0,South,5.8,-,N/A,,Clear,170,2012-10-16 05:56:00
1:56 AM,43.9,39.9,86,29.97,8.0,South,4.6,-,N/A,,Clear,180,2012-10-16 06:56:00
2:56 AM,43.0,39.9,89,29.95,10.0,SSE,9.2,-,N/A,,Clear,160,2012-10-16 07:56:00
3:56 AM,41.9,38.8,89,29.94,7.0,SSE,10.4,-,N/A,,Clear,160,2012-10-16 08:56:00
4:56 AM,43.0,39.9,89,29.93,7.0,South,9.2,-,N/A,,Clear,170,2012-10-16 09:56:00
5:56 AM,43.9,38.8,82,29.91,9.0,SSE,10.4,-,N/A,,Clear,160,2012-10-16 10:56:00
6:56 AM,45.0,38.8,79,29.90,10.0,SSE,12.7,-,N/A,,Clear,150,2012-10-16 11:56:00
7:56 AM,46.9,39.9,77,29.89,9.0,SSE,15.0,-,N/A,,Clear,160,2012-10-16 12:56:00
8:56 AM,50.0,41.9,74,29.88,10.0,SSE,17.3,-,N/A,,Clear,160,2012-10-16 13:56:00
9:56 AM,56.8,45.0,64,29.87,10.0,South,19.6,-,N/A,,Clear,170,2012-10-16 14:56:00
10:56 AM,61.0,46.9,60,29.83,10.0,South,20.7,-,N/A,,Clear,170,2012-10-16 15:56:00
11:56 AM,64.9,47.8,54,29.78,10.0,South,24.2,-,N/A,,Clear,170,2012-10-16 16:56:00
12:56 PM,68.9,50.9,53,29.73,10.0,South,23.0,-,N/A,,Clear,170,2012-10-16 17:56:00
1:56 PM,68.0,50.9,54,29.69,10.0,South,24.2,-,N/A,,Clear,180,2012-10-16 18:56:00
2:56 PM,72.0,52.0,49,29.65,10.0,South,27.6,-,N/A,,Clear,180,2012-10-16 19:56:00
3:56 PM,70.0,52.9,55,29.64,10.0,South,18.4,-,N/A,,Clear,190,2012-10-16 20:56:00
4:56 PM,68.0,52.0,56,29.62,10.0,South,21.9,-,N/A,,Clear,180,2012-10-16 21:56:00
5:56 PM,65.8,52.9,63,29.62,10.0,South,20.7,-,N/A,,Clear,180,2012-10-16 22:56:00
6:56 PM,64.9,52.9,65,29.61,10.0,South,18.4,-,N/A,,Clear,170,2012-10-16 23:56:00
7:56 PM,63.9,52.9,67,29.61,10.0,South,18.4,-,N/A,,Clear,180,2012-10-17 00:56:00
8:56 PM,63.9,52.9,67,29.60,10.0,South,18.4,-,N/A,,Clear,190,2012-10-17 01:56:00
9:56 PM,63.9,52.0,65,29.60,10.0,South,20.7,-,N/A,,Clear,190,2012-10-17 02:56:00
10:56 PM,64.9,50.9,60,29.60,10.0,SSW,23.0,-,N/A,,Clear,210,2012-10-17 03:56:00
11:56 PM,63.0,50.0,63,29.60,10.0,SSW,21.9,-,N/A,,Clear,210,2012-10-17 04:56:00